Skip Page Navigation
NASA JPL Caltech
NASA Logo - Jet Propulsion Laboratory + View the NASA Portal
+ Near-Earth Object (NEO) Program
Search JPL
JPL Home Earth Solar System Stars & Galaxies Technology
JPL Solar System Dynamics
BODIES ORBITS EPHEMERIDES TOOLS PHYSICAL DATA DISCOVERY FAQ SITE MAP
JPL Small-Body Database Browser
Search: [ help ]  
129564 Christy (1997 ER40)
Classification: Main-belt Asteroid          SPK-ID: 2129564
Ephemeris | Orbit Diagram | Orbital Elements | Physical Parameters | Discovery Circumstances ]

[ show orbit diagram ]
Orbital Elements at Epoch 2456400.5 (2013-Apr-18.0) TDB
Reference: MPO241041 (heliocentric ecliptic J2000)
 Element Value Uncertainty (1-sigma)   Units 
e 0.0789277 n/a  
a 2.6779498 n/a AU
q 2.4665854 n/a AU
i 14.32839 n/a deg
node 181.44624 n/a deg
peri 78.89404 n/a deg
M 178.22993 n/a deg
tp 2455608.0347764
(2011-Feb-15.53477640)
n/a JED
period 1600.6710013
4.38
n/a
n/a
d
yr
n 0.22490568 n/a deg/d
Q 2.8893142 n/a AU
  Orbit Determination Parameters
   # obs. used (total)      198  
   first obs. used      1997-??-??  
   last obs. used      2012-10-20  
   # oppositions      8  
   planetary ephem.      DE403  
   condition code      0  
   fit RMS      0.47  
   data source      MPC:mpu  
   producer      MPCLINUX  

Additional Information
 T_jup = 3.329 

Ephemeris | Orbit Diagram | Orbital Elements | Physical Parameters | Discovery Circumstances ]

Physical Parameter Table
Parameter Symbol Value Units Sigma Reference Notes
absolute magnitude H 15.8 mag n/a MPO241041  

129564 Christy           Discovered 1997 Mar. 7 by M. W. Buie at the Anderson Mesa Station of the Lowell Observatory.
James Walter Christy (b. 1938), for many years on the staff of the U.S. Naval Observatory, is the discoverer of Charon, the largest satellite of (134340) Pluto. Just thirty years ago Jim spotted that which many others failed to notice and unlocked many doors in the study of the Pluto system.
NOTE: some special characters may not display properly (any characters within {} are an attempt to place the proper accent above a character)
Reference: 20080819/MPCPages.arcLast Updated: 2008-08-25
Ephemeris | Orbit Diagram | Orbital Elements | Physical Parameters | Discovery Circumstances ]
ABOUT SSD CREDITS/AWARDS PRIVACY/COPYRIGHT GLOSSARY LINKS
FirstGov 2013-Jun-19 18:17 UT
(server date/time)  
NASA Home Page
Site Manager:   Donald K. Yeomans
Webmaster  Alan B. Chamberlin